Back to catalog

FENGYUN 1C DEB

AliveSSO
NORAD 30357·DEBRIS·🇨🇳 China

Launched May 10, 1999 from Taiyuan Satellite Launch Center

Loading…

Next Passes (next 24 hours)

TLE

FreshSource: Space-Track

Epoch: Sep 14, 2026, 07:26 UTC

1 30357U 99025ABU 26257.31003566  .00000142  00000-0  11279-3 0  9999
2 30357  98.7824 281.2572 0048227 276.2612 146.5180 14.05374123  6724

Track FENGYUN 1C DEB in real time with AllMySat

Download on the App Store